Flag for Honduras Weather past 2 weeks in Tegucigalpa, Honduras

Now
73 °F

Broken clouds.


Feels Like: 72 °F
Forecast: 66 / 83 °F
Wind: 5 mph from West

Location: Tegucigalpa Airport

Current Time: Sep 23, 2014 at 9:07:42 AM

Latest Report: Sep 23, 2014 at 8:00 AM


Visibility: N/A

Pressure: 30.09 "Hg

Humidity: 89%

Dew point: 70 °F

Location of TegucigalpaLocation

Historic Weather in Tegucigalpa — Graph

°F

Tegucigalpa temperature yesterday

Maximum temperature yesterday: 86 °F (at 12:00 PM)
Minimum temperature yesterday: 64 °F (at 3:00 AM)
Average temperature yesterday: 73 °F

Past Weeks' High & Low Weather Summary

 TemperatureHumidityPressure
High88 °F (Sep 9, 2:00 PM)100% (Sep 9, 3:00 AM)30.18 "Hg (Sep 9, 3:00 AM)
Low61 °F (Sep 21, 5:00 AM)35% (Sep 21, 1:00 PM)29.92 "Hg (Sep 11, 3:00 PM)
Average73 °F81%30.06 "Hg
* Reported Sep 8 8:00 AM — Sep 23 8:00 AM, Tegucigalpa, Weather by CustomWeather, © 2014

Note: Actual official high and low records may vary slightly from our data, if they occured in-between our weather recording intervals... More about our weather records

Advertising

Tegucigalpa weather history for previous 24 hours

 ConditionsComfort  
Time TempWeatherWind HumidityBarometerVisibility
8:00 AM
Sep 23
73 °FBroken clouds.5 mph89%30.09 "HgN/A
7:00 AM68 °FPartly sunny.No wind100%30.09 "HgN/A
6:00 AM66 °FBroken clouds.2 mph100%30.07 "HgN/A
5:00 AM66 °FPassing clouds.No wind100%30.07 "HgN/A
4:00 AM64 °FPassing clouds.No wind100%30.04 "HgN/A
3:00 AM64 °FPartly cloudy.No wind100%30.07 "HgN/A
12:00 AM68 °FPassing clouds.No wind94%30.09 "HgN/A
11:00 PM
Sep 22
70 °FPartly cloudy.5 mph88%30.09 "HgN/A
10:00 PM70 °FPartly cloudy.3 mph88%30.09 "HgN/A
9:00 PM70 °FPassing clouds.7 mphN/AN/AN/A
8:00 PM70 °FPartly cloudy.9 mph83%30.07 "HgN/A
7:00 PM72 °FThunderstorms. Passing clouds.7 mph78%30.07 "HgN/A
6:00 PM73 °FThunderstorms. Passing clouds.5 mph74%30.04 "HgN/A
5:00 PM77 °FThunderstorms. Broken clouds.7 mph69%29.98 "HgN/A
4:00 PM79 °FThunderstorms. Broken clouds.7 mph70%29.95 "HgN/A
3:00 PM82 °FBroken clouds.7 mph55%29.95 "HgN/A
2:00 PM86 °FBroken clouds.5 mph46%29.98 "HgN/A
1:00 PM82 °FBroken clouds.5 mph55%30.04 "HgN/A
12:00 PM86 °FBroken clouds.3 mph59%30.07 "HgN/A
11:00 AM82 °FBroken clouds.5 mph66%30.09 "HgN/A
10:00 AM79 °FBroken clouds.7 mph65%30.12 "HgN/A
9:00 AM77 °FBroken clouds.7 mph69%30.15 "HgN/A
Weather by CustomWeather, © 2014

See weather overviewHow to use our weather pages